Location: Brisbane
(27.5000°S, 153.0170°E)
Time: 11:05:36
(UTC+10:00)

ISS - Visible Passes

Search period start: 21 May 2018 00:00
Search period end: 31 May 2018 00:00
Orbit: 402 x 407 km, 51.6° (Epoch: 21 May)

Date Brightness Start Highest point End Pass type
(mag) Time Alt. Az. Time Alt. Az. Time Alt. Az.
21 May 0.0 17:35:35 10° WNW 17:36:29 11° NW 17:37:25 10° NW visible
25 May -2.8 05:55:07 10° NNW 05:58:19 50° NE 06:01:33 10° SE visible
26 May -1.1 05:03:40 10° N 05:06:13 21° NE 05:08:48 10° ESE visible
27 May -3.5 05:47:06 10° WNW 05:50:16 45° SW 05:53:29 10° SSE visible
28 May -3.7 04:57:19 50° NNW 04:58:02 72° NE 05:01:21 10° SE visible
29 May -0.4 04:08:45 10° ESE 04:08:45 10° ESE 04:08:46 10° ESE visible
29 May -2.1 05:41:29 16° WSW 05:42:21 17° SW 05:44:38 10° S visible
30 May -1.3 04:52:26 14° SSE 04:52:26 14° SSE 04:53:02 10° SSE visible
